K5AJS-2 Weather Reports


time (UTC)temp
C
wind
direction
speed
KPH
gust
KPH
rain 1hr
cm
rain 24hr
cm
rain mn
cm
humidity
%
barometer
mb
20260506101910 25 86 4.8 8.0 0.00 0.00 0.00 92 1008.3
20260506101411 25 89 6.4 8.0 0.00 0.00 0.00 92 1008.3
20260506100911 25 95 6.4 6.4 0.00 0.00 0.00 92 1008.2
20260506100413 24 129 4.8 8.0 0.00 0.00 0.00 92 1008.3
20260506095911 25 121 3.2 4.8 0.00 0.00 0.00 92 1008.2
20260506095410 24 99 6.4 12.9 0.00 0.00 0.00 92 1008.1
20260506094911 24 96 6.4 8.0 0.00 0.00 0.00 92 1008.1
20260506094410 24 87 6.4 9.7 0.00 0.00 0.00 92 1008.2
20260506093911 24 90 4.8 6.4 0.00 0.00 0.00 92 1008.2
20260506093412 24 90 4.8 8.0 0.00 0.00 0.00 92 1008.1
20260506092911 24 88 4.8 6.4 0.00 0.00 0.00 92 1008.1
20260506092410 24 90 6.4 9.7 0.00 0.00 0.00 92 1008.0
20260506091911 24 86 6.4 6.4 0.00 0.00 0.00 92 1007.9
20260506091413 25 86 6.4 8.0 0.00 0.00 0.00 92 1008.0
20260506090911 25 86 6.4 8.0 0.00 0.00 0.00 92 1007.9
20260506090411 25 87 4.8 8.0 0.00 0.00 0.00 92 1007.9
20260506085911 24 86 4.8 8.0 0.00 0.00 0.00 92 1007.9
20260506085412 24 85 6.4 8.0 0.00 0.00 0.00 92 1007.9
20260506084912 24 86 4.8 6.4 0.00 0.00 0.00 92 1007.9
20260506084411 24 121 6.4 8.0 0.00 0.00 0.00 92 1007.9
20260506083911 24 87 6.4 8.0 0.00 0.00 0.00 92 1008.1
20260506083410 24 95 6.4 8.0 0.00 0.00 0.00 92 1008.1
20260506082911 24 87 8.0 8.0 0.00 0.00 0.00 92 1008.2
20260506082411 24 85 6.4 6.4 0.00 0.00 0.00 92 1008.2
20260506081911 24 86 4.8 6.4 0.00 0.00 0.00 92 1008.2
20260506081410 24 90 6.4 8.0 0.00 0.00 0.00 92 1008.3
20260506080911 25 86 4.8 8.0 0.00 0.00 0.00 92 1008.4
20260506080412 25 86 6.4 8.0 0.00 0.00 0.00 92 1008.5
20260506073411 25 131 4.8 6.4 0.00 0.00 0.00 91 1008.8
20260506072911 25 127 4.8 8.0 0.00 0.00 0.00 91 1008.9
20260506072410 25 86 4.8 11.3 0.00 0.00 0.00 91 1008.9
20260506071911 25 86 4.8 6.4 0.00 0.00 0.00 91 1008.9
20260506071410 25 86 6.4 8.0 0.00 0.00 0.00 91 1008.9
20260506070911 25 87 4.8 8.0 0.00 0.00 0.00 91 1008.9
20260506070411 25 88 4.8 8.0 0.00 0.00 0.00 91 1009.1
20260506062410 25 86 3.2 4.8 0.00 0.00 0.00 90 1009.0
20260506061911 25 87 4.8 6.4 0.00 0.00 0.00 90 1009.0
20260506061411 25 87 4.8 6.4 0.00 0.00 0.00 90 1009.1
20260506060912 25 93 4.8 9.7 0.00 0.00 0.00 90 1009.1
20260506060411 25 86 6.4 8.0 0.00 0.00 0.00 90 1009.0
20260506051410 25 200 14.5 24.1 0.00 0.00 0.00 90 1008.8
20260506050910 25 173 4.8 6.4 0.00 0.00 0.00 90 1008.9
20260506050410 25 173 4.8 6.4 0.00 0.00 0.00 90 1009.0
20260506044910 25 86 4.8 6.4 0.00 0.00 0.00 90 1008.9
20260506044411 25 87 4.8 6.4 0.00 0.00 0.00 90 1009.0
20260506043911 25 87 4.8 6.4 0.00 0.00 0.00 90 1008.9
20260506043411 25 87 4.8 6.4 0.00 0.00 0.00 90 1009.0
20260506042910 25 88 4.8 6.4 0.00 0.00 0.00 90 1008.9
20260506042410 25 87 4.8 6.4 0.00 0.00 0.00 89 1008.9
20260506041911 25 90 4.8 6.4 0.00 0.00 0.00 89 1008.9
20260506041411 25 122 9.7 20.9 0.00 0.00 0.00 89 1009.0
20260506040911 25 124 6.4 11.3 0.00 0.00 0.00 89 1009.0
20260506040411 25 97 4.8 14.5 0.00 0.00 0.00 89 1009.0
20260506035911 25 100 4.8 6.4 0.00 0.00 0.00 89 1009.1
20260506035410 25 138 4.8 4.8 0.00 0.00 0.00 89 1009.2
20260506034911 25 105 3.2 8.0 0.00 0.00 0.00 89 1009.1
20260506034410 25 87 3.2 6.4 0.00 0.00 0.00 88 1009.1
20260506033910 25 87 4.8 6.4 0.00 0.00 0.00 88 1008.9
20260506032923 25 97 6.4 6.4 0.00 0.00 0.00 88 1008.8
20260506032411 25 134 4.8 6.4 0.00 0.00 0.00 88 1008.9
20260506031911 25 88 3.2 6.4 0.00 0.00 0.00 89 1008.7
20260506031410 25 172 3.2 6.4 0.00 0.00 0.00 89 1008.7
20260506030910 25 127 3.2 6.4 0.00 0.00 0.00 89 1008.6
20260506030412 25 173 3.2 6.4 0.00 0.00 0.00 89 1008.7
20260506025911 25 174 4.8 6.4 0.00 0.00 0.00 89 1008.5
20260506025410 25 155 4.8 6.4 0.00 0.00 0.00 89 1008.5
20260506024910 25 112 3.2 6.4 0.00 0.00 0.00 89 1008.5
20260506024410 25 93 4.8 12.9 0.00 0.00 0.00 89 1008.5
20260506023910 25 89 3.2 6.4 0.00 0.00 0.00 89 1008.4
20260506023410 25 116 4.8 9.7 0.00 0.00 0.00 89 1008.4
20260506022911 25 92 3.2 6.4 0.00 0.00 0.00 89 1008.1
20260506022411 25 106 4.8 6.4 0.00 0.00 0.00 89 1008.1
20260506021910 25 86 3.2 4.8 0.00 0.00 0.00 89 1008.0
20260506021411 25 156 4.8 6.4 0.00 0.00 0.00 89 1008.1
20260506020912 25 114 4.8 4.8 0.00 0.00 0.00 89 1008.1
20260506020411 25 86 3.2 4.8 0.00 0.00 0.00 89 1008.1
20260506015911 25 87 4.8 6.4 0.00 0.00 0.00 89 1008.1
20260506015411 25 130 3.2 6.4 0.00 0.00 0.00 89 1008.0
20260506014912 25 87 3.2 4.8 0.00 0.00 0.00 89 1007.9
20260506014411 25 86 4.8 6.4 0.00 0.00 0.00 89 1007.8
20260506013911 25 86 3.2 6.4 0.00 0.00 0.00 89 1007.9
20260506013410 25 86 4.8 6.4 0.00 0.00 0.00 89 1007.8
20260506012910 25 86 3.2 6.4 0.00 0.00 0.00 89 1007.7
20260506012410 25 96 3.2 6.4 0.00 0.00 0.00 89 1007.6
20260506011911 25 96 4.8 12.9 0.00 0.00 0.00 89 1007.5
20260506011410 25 99 3.2 4.8 0.00 0.00 0.00 89 1007.4
20260506010910 25 125 3.2 4.8 0.00 0.00 0.00 89 1007.3
20260506010411 25 148 4.8 6.4 0.00 0.00 0.00 89 1007.3
20260506005912 25 86 3.2 6.4 0.00 0.00 0.00 89 1007.3
20260506005411 25 86 3.2 4.8 0.00 0.00 0.00 89 1007.3
20260506004913 25 86 4.8 6.4 0.00 0.00 0.00 89 1007.2
20260506004411 25 86 3.2 6.4 0.00 0.00 0.00 89 1007.1
20260506003912 25 129 4.8 6.4 0.00 0.00 0.00 88 1007.1
20260506003411 25 137 4.8 6.4 0.00 0.00 0.00 88 1007.1
20260506002911 25 173 3.2 4.8 0.00 0.00 0.00 88 1007.2
20260506002416 25 127 3.2 4.8 0.00 0.00 0.00 88 1007.3
20260506001910 25 93 3.2 8.0 0.00 0.00 0.00 88 1007.3
20260506001411 25 86 3.2 6.4 0.00 0.00 0.00 88 1007.3
20260506000914 25 86 3.2 3.2 0.00 0.00 0.00 88 1007.3
20260506000411 25 86 3.2 3.2 0.00 0.00 0.00 87 1007.4
20260505235910 25 86 3.2 4.8 0.00 0.00 0.00 87 1007.3
20260505235410 25 86 3.2 3.2 0.00 0.00 0.00 87 1007.4
20260505234913 25 87 1.6 4.8 0.00 0.00 0.00 87 1007.4
20260505234410 25 109 3.2 4.8 0.00 0.00 0.00 87 1007.4
20260505233910 25 87 3.2 3.2 0.00 0.00 0.00 86 1007.4
20260505233411 25 87 3.2 4.8 0.00 0.00 0.00 86 1007.3
20260505232910 25 91 3.2 4.8 0.00 0.00 0.00 86 1007.3
20260505232411 25 87 3.2 3.2 0.00 0.00 0.00 86 1007.4
20260505231910 25 87 3.2 6.4 0.00 0.00 0.00 86 1007.3
20260505231411 25 87 3.2 4.8 0.00 0.00 0.00 86 1007.5
20260505230910 25 87 3.2 4.8 0.00 0.00 0.00 86 1007.4
20260505230411 25 90 3.2 4.8 0.00 0.00 0.00 86 1007.4
20260505225911 25 145 3.2 3.2 0.00 0.00 0.00 86 1007.5
20260505225410 25 130 3.2 4.8 0.00 0.00 0.00 86 1007.5
20260505224910 25 170 3.2 4.8 0.00 0.00 0.00 85 1007.5
20260505224411 25 118 3.2 6.4 0.00 0.00 0.00 85 1007.2
20260505223911 25 111 3.2 9.7 0.00 0.00 0.00 85 1007.6
20260505223411 25 87 3.2 4.8 0.00 0.00 0.00 85 1007.4
20260505222911 25 88 3.2 4.8 0.00 0.00 0.00 85 1007.4
20260505222410 25 252 4.8 8.0 0.00 0.00 0.00 84 1007.6
20260505221911 25 198 6.4 14.5 0.00 0.00 0.00 85 1007.6
20260505221411 25 98 3.2 9.7 0.00 0.00 0.00 86 1007.7
20260505220911 26 114 3.2 3.2 0.00 0.00 0.00 85 1007.9
20260505220411 26 99 3.2 4.8 0.00 0.00 0.00 85 1007.9
20260505215911 26 107 3.2 6.4 0.00 0.00 0.00 85 1008.0
20260505215410 26 88 3.2 4.8 0.00 0.00 0.00 85 1008.0
20260505214911 26 123 6.4 16.1 0.00 0.00 0.00 84 1008.1
20260505214411 26 151 6.4 17.7 0.00 0.00 0.00 84 1008.1
20260505213910 26 88 3.2 4.8 0.00 0.00 0.00 84 1008.1
20260505213411 26 239 3.2 6.4 0.00 0.00 0.00 84 1008.0
20260505212911 26 89 3.2 3.2 0.00 0.00 0.00 84 1008.1
20260505212412 26 89 3.2 11.3 0.00 0.00 0.00 84 1008.3
20260505211911 26 100 3.2 3.2 0.00 0.00 0.00 83 1008.3
20260505211411 26 148 3.2 3.2 0.00 0.00 0.00 83 1008.4
20260505210911 26 161 3.2 4.8 0.00 0.00 0.00 83 1008.4
20260505210411 26 128 4.8 11.3 0.00 0.00 0.00 83 1008.4
20260505205910 26 108 3.2 6.4 0.00 0.00 0.00 82 1008.1
20260505205411 26 114 3.2 11.3 0.00 0.00 0.00 82 1008.0
20260505204910 26 85 4.8 16.1 0.00 0.00 0.00 82 1008.5
20260505204411 26 112 3.2 4.8 0.00 0.00 0.00 82 1008.3
20260505203915 26 159 3.2 4.8 0.00 0.00 0.00 82 1008.5
20260505203415 26 150 3.2 4.8 0.00 0.00 0.00 81 1008.5
20260505202911 26 140 3.2 4.8 0.00 0.00 0.00 81 1008.7
20260505202411 26 103 3.2 6.4 0.00 0.00 0.00 82 1008.7
20260505201911 26 107 3.2 6.4 0.00 0.00 0.00 82 1008.7
20260505201411 26 117 4.8 9.7 0.00 0.00 0.00 81 1008.8
20260505200910 26 118 6.4 14.5 0.00 0.00 0.00 81 1008.7
20260505200410 26 126 6.4 22.5 0.00 0.00 0.00 81 1008.7
20260505195911 26 89 3.2 4.8 0.00 0.00 0.00 81 1008.7
20260505195412 26 97 3.2 6.4 0.00 0.00 0.00 81 1008.7
20260505194911 26 215 4.8 9.7 0.00 0.00 0.00 83 1008.6
20260505194411 26 88 3.2 4.8 0.00 0.00 0.00 82 1009.3
20260505193911 26 114 3.2 4.8 0.00 0.00 0.00 82 1009.2
20260505193411 26 175 3.2 6.4 0.00 0.00 0.00 82 1009.2
20260505192910 26 236 4.8 12.9 0.00 0.00 0.00 81 1009.5
20260505192411 26 251 8.0 24.1 0.00 0.00 0.00 82 1009.3
20260505191911 26 241 8.0 16.1 0.00 0.00 0.00 81 1009.3
20260505191411 26 222 3.2 8.0 0.00 0.00 0.00 81 1009.2
20260505190910 26 135 3.2 6.4 0.00 0.00 0.00 82 1009.3
20260505190412 26 152 6.4 11.3 0.00 0.00 0.00 81 1009.2
20260505185911 26 188 6.4 11.3 0.00 0.00 0.00 81 1009.0
20260505185414 26 257 4.8 8.0 0.00 0.00 0.00 81 1009.1
20260505184911 26 256 4.8 8.0 0.00 0.00 0.00 81 1009.2
20260505184410 26 250 3.2 4.8 0.00 0.00 0.00 81 1009.4
20260505183910 26 253 6.4 9.7 0.00 0.00 0.00 81 1009.0
20260505183410 26 168 6.4 16.1 0.00 0.00 0.00 81 1009.2
20260505182913 26 212 6.4 12.9 0.00 0.00 0.00 81 1009.3
20260505182414 26 206 12.9 17.7 0.00 0.00 0.00 82 1009.3
20260505181911 26 154 4.8 19.3 0.00 0.00 0.00 83 1009.3
20260505181413 26 87 4.8 6.4 0.00 0.00 0.00 83 1009.4
20260505180912 26 143 4.8 12.9 0.00 0.00 0.00 83 1009.4
20260505180411 26 241 6.4 9.7 0.00 0.00 0.00 83 1009.3
20260505175911 26 229 4.8 9.7 0.00 0.00 0.00 83 1009.5
20260505175410 26 177 6.4 12.9 0.00 0.00 0.00 82 1009.6
20260505174911 26 252 9.7 14.5 0.00 0.00 0.00 82 1009.5
20260505174414 26 240 8.0 12.9 0.00 0.00 0.00 82 1009.5
20260505173913 26 201 6.4 12.9 0.00 0.00 0.00 82 1009.8
20260505173411 26 237 9.7 16.1 0.00 0.00 0.00 81 1009.7
20260505172911 26 190 6.4 12.9 0.00 0.00 0.00 81 1009.6
20260505172411 26 178 3.2 6.4 0.00 0.00 0.00 82 1009.6
20260505171910 26 163 4.8 8.0 0.00 0.00 0.00 82 1009.9
20260505171411 26 189 3.2 9.7 0.00 0.00 0.00 82 1009.7
20260505170910 26 246 4.8 11.3 0.00 0.00 0.00 83 1010.0
20260505170411 26 207 4.8 9.7 0.00 0.00 0.00 82 1009.8
20260505165911 26 239 6.4 8.0 0.00 0.00 0.00 83 1009.9
20260505165412 26 214 8.0 16.1 0.00 0.00 0.00 84 1009.8
20260505164912 25 217 8.0 14.5 0.00 0.00 0.00 84 1009.9
20260505164411 26 201 6.4 12.9 0.00 0.00 0.00 84 1010.0
20260505163911 26 220 8.0 12.9 0.00 0.00 0.00 83 1010.0
20260505163411 26 197 4.8 6.4 0.00 0.00 0.00 83 1009.8
20260505162911 26 92 3.2 4.8 0.00 0.00 0.00 83 1009.9
20260505162410 26 167 4.8 6.4 0.00 0.00 0.00 83 1009.8
20260505161910 26 188 6.4 11.3 0.00 0.00 0.00 83 1009.7
20260505161410 25 170 6.4 9.7 0.00 0.00 0.00 84 1009.7
20260505160911 25 167 4.8 4.8 0.00 0.00 0.00 83 1009.6
20260505160410 25 105 4.8 6.4 0.00 0.00 0.00 83 1009.6
20260505152912 25 161 4.8 6.4 0.00 0.00 0.00 83 1009.7
20260505152415 25 160 4.8 6.4 0.00 0.00 0.00 83 1009.6
20260505151911 25 166 6.4 6.4 0.00 0.00 0.00 83 1009.6
20260505151411 25 139 4.8 6.4 0.00 0.00 0.00 82 1009.5
20260505150911 26 91 4.8 8.0 0.00 0.00 0.00 83 1009.7
20260505150412 26 81 6.4 14.5 0.00 0.00 0.00 82 1009.5
20260505140414 25 179 4.8 12.9 0.00 0.00 0.00 83 1009.5
20260505124911 24 173 6.4 6.4 0.00 0.00 0.00 87 1009.1
20260505124410 24 172 6.4 6.4 0.00 0.00 0.00 87 1009.1
20260505123912 24 172 4.8 6.4 0.00 0.00 0.00 87 1009.0
20260505123412 24 172 4.8 6.4 0.00 0.00 0.00 87 1009.0
20260505122911 24 173 3.2 4.8 0.00 0.00 0.00 87 1009.0
20260505122410 23 172 4.8 4.8 0.00 0.00 0.00 87 1008.9
20260505121911 23 175 3.2 3.2 0.00 0.00 0.00 87 1009.0
20260505121410 23 175 3.2 3.2 0.00 0.00 0.00 88 1008.9
20260505120911 23 174 3.2 3.2 0.00 0.00 0.00 88 1008.9
20260505120411 23 175 3.2 3.2 0.00 0.00 0.00 88 1008.9
20260505115910 23 175 3.2 3.2 0.00 0.00 0.00 88 1008.8
20260505115411 23 174 3.2 3.2 0.00 0.00 0.00 88 1008.9
20260505114912 23 175 3.2 3.2 0.00 0.00 0.00 88 1008.9
20260505114410 23 174 3.2 3.2 0.00 0.00 0.00 88 1008.9
20260505113910 23 174 3.2 3.2 0.00 0.00 0.00 88 1008.8
20260505113410 23 175 3.2 3.2 0.00 0.00 0.00 87 1008.9
20260505112912 23 175 3.2 3.2 0.00 0.00 0.00 87 1009.0
20260505112411 23 175 3.2 3.2 0.00 0.00 0.00 87 1008.9
20260505111911 23 175 3.2 3.2 0.00 0.00 0.00 87 1008.7
20260505111411 23 174 3.2 3.2 0.00 0.00 0.00 87 1008.8
20260505110912 23 186 4.8 14.5 0.00 0.00 0.00 87 1008.7
20260505110411 23 175 3.2 3.2 0.00 0.00 0.00 87 1008.6